Theta_e
303 302 303 303 303 303 302 301 301 303 301 299 296 298 292 292 292 302 305 304 302 297 290 292 291 291 293 297 295 296 294 293 294 293 295 293 295 294 293 293 292 294 293 294 293 294 291 293 292 294 294 297 300 302 303 303 299 299 297 298 300 302 293 290 292 295 299 301 302 303 304 301 299 300 301 298 295 297 295 294 296 291 292 290 290 287 294
302 303 303 303 303 302 301 301 301 301 302 300 299 294 292 294 295 297 302 304 302 295 285 286 288 291 294 294 293 294 293 294 292 292 294 292 293 292 292 294 295 293 296 294 292 295 289 296 295 295 298 297 302 303 302 303 297 297 298 295 302 291 295 293 288 288 291 295 298 298 301 300 297 297 299 300 299 300 300 299 299 290 293 292 289 285 293
302 303 303 303 302 302 301 301 301 300 301 302 299 291 294 293 297 298 298 303 301 291 295 292 289 291 292 292 289 291 291 293 292 292 292 294 293 292 291 293 295 294 296 295 297 296 294 294 298 299 299 299 303 304 304 302 298 301 304 307 303 294 294 292 285 282 280 280 283 286 290 294 299 302 300 299 298 299 297 290 293 288 293 294 291 290 299
302 303 303 302 302 301 301 301 301 300 300 301 298 295 292 291 285 293 295 298 298 297 300 298 296 291 292 289 292 292 290 292 294 294 293 294 295 295 294 296 297 295 295 295 294 294 297 294 295 296 297 300 301 303 304 302 302 306 306 304 303 296 298 297 296 289 288 290 295 299 300 298 294 297 297 298 301 302 300 297 291 289 293 291 295 298 297
302 302 302 302 301 301 301 301 301 302 301 301 299 295 292 293 288 290 287 295 295 294 296 295 297 292 295 287 291 290 289 290 293 296 291 296 295 295 295 295 294 295 296 295 295 297 295 297 297 295 297 299 300 303 305 306 307 306 304 306 301 298 293 297 296 294 293 294 295 298 299 296 298 296 297 298 298 301 298 292 291 297 294 288 300 303 300
302 302 302 302 301 301 300 300 301 302 301 301 301 291 294 287 294 297 298 290 286 288 290 295 296 298 297 291 296 293 290 291 290 296 296 297 297 291 294 296 296 296 296 296 292 296 296 296 291 297 297 297 300 300 302 303 303 305 301 306 302 296 291 295 297 294 295 296 297 299 300 300 300 300 298 298 299 299 297 298 300 298 291 289 299 303 301
301 302 302 301 301 300 300 300 300 302 301 301 297 289 294 294 294 296 302 291 296 293 295 297 295 295 296 294 296 293 291 291 295 294 295 295 294 295 288 293 295 296 297 298 295 296 292 290 298 297 295 297 298 297 299 302 304 303 302 303 306 300 294 297 298 295 296 296 298 298 298 298 299 299 299 300 300 301 302 301 302 303 301 302 303 304 302
302 302 302 301 301 300 300 300 300 302 301 301 296 293 291 292 291 293 300 299 298 298 297 296 295 293 296 292 295 295 293 294 297 297 294 290 294 297 295 295 295 296 297 299 296 299 300 298 293 300 299 297 300 298 299 297 301 303 302 302 303 302 291 297 298 295 294 296 297 298 298 299 297 298 300 300 301 301 302 303 303 302 303 305 305 300 293
301 301 301 301 300 300 300 300 300 301 302 297 294 294 296 297 298 296 292 292 295 298 296 295 295 292 296 293 297 295 297 295 297 295 297 294 294 297 294 295 296 297 297 296 296 298 302 302 301 300 300 295 298 297 297 301 298 300 299 303 301 303 293 299 299 291 291 296 297 298 299 299 297 296 298 299 300 298 298 296 299 304 302 304 304 299 295
301 301 301 300 300 300 300 300 300 301 301 297 297 292 301 300 301 299 294 289 294 294 298 297 296 290 296 297 298 294 296 297 297 292 296 296 296 297 298 298 297 296 296 293 296 300 302 300 300 301 301 302 300 301 301 302 301 299 300 304 299 300 295 293 293 290 290 295 298 298 297 296 291 290 292 296 298 298 298 298 299 298 304 302 295 299 300
301 300 301 300 301 301 301 301 300 301 301 296 295 294 296 294 292 293 293 289 293 296 296 294 294 296 298 299 297 298 297 298 299 293 291 297 296 298 298 300 297 294 295 297 302 305 305 305 303 304 303 302 302 303 303 301 303 302 302 301 301 301 298 294 298 290 290 295 296 297 293 285 286 293 295 295 296 298 297 295 295 298 301 299 300 298 297
300 300 300 300 300 301 301 301 301 301 301 300 300 296 299 299 297 294 289 286 290 297 295 292 294 296 296 298 298 296 295 296 297 299 295 297 297 298 299 300 299 291 300 304 305 305 305 305 304 304 303 302 302 302 302 301 302 303 304 302 300 299 298 296 299 293 290 293 293 289 283 284 289 294 296 297 298 298 296 294 296 297 298 298 296 295 295
300 300 300 300 300 301 301 301 302 302 302 302 301 296 300 301 295 293 291 288 288 294 293 295 294 295 297 297 298 295 298 297 297 298 298 299 298 298 297 299 299 299 304 302 303 303 298 296 297 297 297 299 300 300 300 301 301 304 305 306 304 296 296 296 294 295 293 290 290 281 282 290 293 295 297 299 299 299 298 295 296 297 297 298 295 295 294
300 299 300 300 301 301 301 301 302 302 302 303 300 300 301 300 295 293 292 289 290 291 293 293 293 294 295 294 297 299 297 296 297 300 296 299 298 297 298 299 303 305 305 304 302 300 295 296 291 292 293 295 295 294 297 300 301 301 302 303 305 303 300 296 292 295 288 290 289 286 290 291 293 292 294 295 294 296 297 291 294 298 299 299 294 293 292
299 299 300 300 301 301 301 301 302 302 302 303 302 301 301 301 299 295 295 293 288 293 296 290 294 293 293 294 297 297 296 295 295 294 297 300 297 297 298 300 304 303 302 301 298 298 294 292 287 287 288 288 284 286 295 293 298 302 302 303 303 304 295 294 293 288 293 290 287 286 286 284 289 296 300 301 301 302 302 298 293 299 300 300 297 293 291
300 299 300 300 300 301 301 302 302 302 303 303 302 300 301 303 302 299 295 292 290 288 291 289 289 292 293 295 297 296 293 292 295 295 296 296 296 298 300 302 303 303 301 299 298 294 292 289 286 286 284 286 290 287 286 292 292 298 302 302 302 303 302 295 294 290 291 290 286 285 283 285 293 296 298 300 301 302 302 296 291 297 299 300 300 295 293
299 299 300 300 300 301 301 302 302 302 303 303 301 301 300 304 301 298 295 294 292 287 293 292 294 295 294 295 297 296 297 294 296 292 291 293 295 296 298 302 304 303 298 298 297 293 290 289 292 290 287 290 287 287 290 289 289 290 297 300 298 293 296 296 292 289 290 289 287 286 288 286 294 297 298 299 303 299 299 286 286 294 298 300 300 297 295
299 299 299 299 300 300 301 302 302 302 303 303 303 300 300 305 304 301 297 294 291 292 298 298 294 294 295 297 295 298 298 297 296 299 295 296 296 295 295 298 296 298 302 293 295 291 289 289 286 287 286 291 291 291 284 290 288 289 289 292 291 291 292 293 289 290 290 287 287 289 288 293 298 297 299 300 301 300 288 284 291 297 298 299 299 297 296
299 299 299 299 300 300 301 301 302 302 303 303 305 303 302 304 304 303 298 296 295 289 300 300 297 295 299 300 302 300 300 302 300 294 293 293 296 298 298 298 300 292 296 292 294 289 288 288 293 291 288 288 292 286 292 288 287 290 291 287 288 289 290 290 292 289 288 289 287 287 289 293 299 298 300 301 296 287 286 292 298 299 297 299 297 296 296
299 299 299 299 300 300 301 301 302 302 303 303 304 299 302 304 305 304 299 295 296 294 298 298 296 294 298 298 298 298 299 299 299 296 294 291 299 298 295 291 296 298 294 296 287 292 288 286 288 292 290 290 291 294 290 287 292 291 291 291 290 289 287 287 287 289 289 289 286 284 281 288 298 298 298 299 291 291 294 296 297 299 298 297 296 295 295
299 299 299 300 300 300 301 301 302 302 303 302 303 300 298 306 306 306 304 299 296 292 295 301 301 298 299 297 299 299 300 298 299 297 299 299 302 299 288 288 294 294 290 291 287 287 289 288 291 289 295 292 292 292 287 288 290 293 293 294 293 294 289 289 289 292 286 286 284 283 290 292 299 299 291 295 296 298 299 299 295 297 297 295 294 294 295
299 299 299 300 300 301 301 301 302 302 301 302 302 302 298 303 305 305 304 302 296 293 297 301 301 300 303 302 302 304 302 302 303 304 302 297 302 300 298 298 298 297 299 298 293 291 294 295 296 290 288 291 294 289 292 287 286 291 294 293 287 294 292 293 289 291 289 288 288 286 291 295 296 296 295 297 299 300 300 299 297 296 296 297 294 293 294
299 299 300 300 300 301 301 301 301 301 300 301 302 301 298 300 301 305 304 297 299 299 301 301 303 303 303 302 304 306 307 307 307 309 307 301 295 300 300 299 298 302 302 303 297 295 295 294 289 295 292 292 290 289 291 290 288 290 288 292 292 293 296 298 295 286 290 292 292 292 292 294 295 296 298 297 298 300 300 299 297 298 298 298 295 294 293
299 299 299 300 300 300 301 301 301 300 300 301 302 300 300 301 302 302 300 298 293 293 300 304 300 295 298 299 302 306 306 305 306 307 308 308 296 296 300 302 304 303 303 304 303 299 298 296 296 297 289 295 295 288 286 285 288 294 291 289 293 294 295 296 290 291 290 284 291 290 291 293 295 295 296 298 299 299 299 298 297 298 298 296 296 295 294
299 299 299 300 300 301 301 301 301 301 301 302 302 303 303 301 303 303 300 291 292 292 290 294 296 300 302 304 306 304 304 306 309 310 311 310 308 300 298 305 307 305 302 303 305 302 297 292 292 292 288 295 297 289 295 290 289 295 289 290 291 290 297 293 291 290 288 286 288 291 293 294 295 296 295 294 296 298 298 298 299 298 298 297 295 295 295
299 299 300 300 300 301 301 302 301 302 302 303 303 300 300 300 304 305 303 302 301 297 291 291 296 303 305 303 300 302 305 306 307 308 308 308 309 309 305 305 305 307 305 306 306 298 296 295 293 294 292 290 299 292 291 295 294 296 293 291 295 295 296 289 293 288 285 289 289 290 292 292 292 294 295 296 296 295 296 297 297 297 295 295 296 296 295
300 300 300 300 300 301 302 302 302 302 303 303 303 303 302 303 305 303 301 301 297 292 295 292 297 300 302 299 302 304 304 306 307 306 306 307 307 308 307 305 303 303 303 301 303 297 296 295 294 292 296 291 298 295 295 293 293 289 288 291 295 294 290 294 291 286 285 286 287 291 287 285 288 291 293 294 295 295 295 295 295 295 294 294 294 294 295
300 300 300 300 301 302 302 302 302 302 303 303 304 304 305 304 305 305 306 304 301 293 294 294 296 299 304 299 302 304 305 305 305 304 304 304 305 306 306 304 304 302 301 299 294 295 294 292 290 292 293 297 294 291 297 296 296 291 290 290 293 291 293 292 289 289 288 294 293 295 295 293 291 291 293 294 295 294 293 293 293 293 294 294 293 293 294
300 300 300 301 301 302 302 302 302 303 303 303 306 305 305 306 307 306 306 307 306 302 298 298 301 300 293 296 303 303 304 305 304 303 303 303 303 303 303 303 302 301 301 298 295 295 293 292 294 294 293 297 295 290 292 288 287 284 287 291 292 293 296 295 294 294 294 295 295 296 294 290 290 292 293 293 295 294 293 293 294 293 294 294 294 294 293
300 300 300 301 301 302 302 302 302 303 303 305 303 302 299 302 307 307 307 307 307 304 296 293 290 291 301 300 300 301 301 303 302 302 302 301 301 302 301 302 301 302 300 296 295 291 293 292 292 297 297 300 294 292 289 288 285 285 291 293 294 295 295 296 296 294 292 295 296 296 294 292 293 293 293 294 294 294 292 292 293 293 294 295 294 293 294
300 300 301 301 301 302 302 302 303 303 303 304 302 295 294 291 301 310 307 308 310 306 297 297 292 296 295 300 301 298 299 300 301 301 301 301 300 301 301 302 301 300 295 294 294 293 294 290 291 292 296 295 294 291 288 287 284 285 289 292 294 294 295 295 297 297 296 295 295 294 294 292 293 292 292 293 293 294 294 294 294 295 295 295 294 294 294
300 300 301 301 301 302 302 303 303 303 304 302 299 300 301 302 305 309 307 307 309 305 296 292 291 292 292 295 300 301 300 300 301 301 300 302 299 300 300 299 296 299 295 293 293 293 291 292 292 293 294 294 293 290 290 287 283 283 290 292 294 294 294 294 294 295 296 295 294 291 289 290 292 290 288 293 293 293 293 293 293 293 293 293 294 294 294
300 301 301 301 301 302 302 303 303 303 303 305 305 304 304 304 304 304 305 309 307 301 303 294 290 291 290 294 300 300 300 302 299 299 296 301 298 299 296 300 299 297 300 294 290 289 294 292 292 291 294 298 290 288 287 285 285 289 291 292 292 293 293 294 294 294 294 294 295 289 287 288 289 292 292 292 292 291 291 291 292 293 292 292 292 292 293
300 301 301 301 302 302 303 303 303 303 303 304 304 305 308 305 307 304 310 309 305 304 299 293 289 289 290 298 294 297 301 296 295 298 290 298 301 299 294 297 297 291 294 293 293 293 293 292 291 290 294 291 292 288 282 284 289 290 291 291 291 291 292 292 292 291 292 293 293 293 293 292 292 291 291 291 291 292 293 293 293 291 291 291 290 291 292
300 301 301 302 302 303 303 303 304 305 304 305 304 308 309 302 305 306 307 307 298 292 292 292 294 289 288 290 289 293 300 298 292 296 291 294 301 296 295 291 292 289 289 299 291 291 289 290 295 291 287 293 288 283 284 286 288 290 290 290 291 291 290 289 289 290 291 291 291 291 292 292 291 289 289 290 291 291 291 291 291 290 289 289 289 290 291
300 301 301 302 302 303 304 304 304 305 302 301 304 307 304 305 306 308 310 309 307 295 291 290 293 290 290 286 286 290 300 294 297 297 295 294 294 298 297 292 286 289 296 292 288 292 289 293 292 287 290 286 283 286 286 289 288 289 290 289 291 291 291 290 289 290 291 292 291 291 291 291 290 289 291 291 291 291 291 290 290 290 289 290 291 292 292
300 301 301 301 305 305 300 297 303 305 305 306 305 304 302 305 311 310 306 308 308 310 298 291 290 291 294 290 292 292 297 288 296 293 295 292 289 292 293 289 286 290 289 288 289 288 292 298 291 286 286 283 285 290 291 291 290 289 290 292 292 292 292 292 292 292 291 290 290 290 291 290 289 290 291 291 291 291 291 290 291 291 291 292 293 293 294
300 300 304 305 302 294 294 296 304 306 301 302 304 305 306 304 296 297 297 295 298 303 295 299 291 294 296 295 288 296 297 291 297 290 290 293 290 289 292 289 288 289 283 286 288 295 292 291 287 285 284 289 291 292 292 293 293 294 293 293 293 293 294 294 294 292 290 289 288 289 290 290 290 291 291 291 292 291 292 293 293 294 294 294 294 294 294
300 304 306 303 298 294 294 302 305 301 303 306 306 298 294 296 295 290 291 294 294 292 295 296 291 296 295 293 293 299 296 291 290 293 288 293 290 286 291 285 288 289 285 285 287 296 286 287 287 286 284 288 289 290 294 294 295 295 295 294 294 294 294 293 294 292 290 289 289 291 291 290 290 290 292 292 292 293 293 293 293 294 294 293 293 293 294
304 302 296 296 296 299 304 306 304 302 305 298 297 296 290 294 290 287 294 290 290 291 293 290 296 296 299 293 292 291 299 296 289 288 289 290 296 288 289 289 289 287 281 283 284 294 285 281 286 286 284 288 289 293 294 294 294 295 296 296 295 295 296 295 295 295 294 294 295 295 295 295 295 293 293 292 292 291 292 293 294 294 294 294 294 294 293
298 299 299 295 300 300 302 302 305 305 298 294 293 292 291 288 291 291 290 288 288 289 295 296 296 295 296 297 296 291 297 301 298 299 294 288 294 294 288 284 290 285 282 282 287 289 287 285 285 285 285 290 291 293 295 295 295 296 297 297 297 297 297 297 297 297 296 295 295 296 296 296 295 294 294 294 294 293 294 294 294 294 294 294 294 294 295
296 295 297 298 298 299 300 302 298 294 293 293 290 285 288 289 291 290 291 286 287 290 293 296 290 293 293 297 297 297 294 299 296 292 291 287 290 289 286 288 288 285 280 286 289 288 286 280 281 283 288 292 294 295 295 294 295 295 296 297 297 297 297 296 296 296 297 296 295 295 296 296 296 295 295 295 295 294 294 294 294 294 295 295 295 295 295
298 299 298 297 298 296 296 292 293 292 286 287 285 283 287 285 287 287 287 291 292 294 293 300 297 298 298 300 297 299 295 299 294 292 290 287 290 290 287 286 285 280 284 291 288 284 282 280 281 285 290 292 294 294 294 295 295 296 296 297 297 297 296 296 295 296 296 296 296 296 296 296 296 297 297 296 295 295 295 295 296 295 295 295 295 295 295
299 298 296 294 292 292 293 284 292 289 286 287 285 281 284 283 286 288 286 288 292 292 295 293 294 294 289 296 294 291 292 295 294 293 290 290 289 286 285 283 283 287 292 287 285 282 283 284 286 288 291 293 294 294 294 295 295 295 296 296 297 296 296 296 296 295 296 296 297 297 297 297 297 297 297 296 296 296 296 295 295 296 296 296 295 295 295
295 292 291 290 288 290 289 281 291 287 283 285 287 287 286 284 286 288 289 293 295 293 296 298 296 296 291 295 295 294 293 290 293 290 286 289 286 287 285 283 287 288 285 282 284 284 283 283 288 290 291 292 293 294 295 295 295 295 295 296 296 296 296 296 296 296 295 296 296 297 296 296 296 296 297 296 297 297 296 295 296 295 295 295 295 294 295
292 290 290 285 280 286 287 284 285 283 288 289 288 290 290 291 292 291 296 298 296 296 294 296 296 296 292 295 292 290 292 292 289 288 288 289 285 282 287 290 289 284 283 284 281 281 282 286 289 290 291 292 294 294 294 295 295 296 295 294 295 295 296 295 295 296 296 296 296 296 296 296 296 296 297 298 298 296 296 296 297 296 296 295 294 294 295
292 291 290 290 285 287 289 284 285 289 290 291 292 293 294 295 296 297 297 298 297 297 298 299 298 296 293 291 291 291 292 292 287 288 290 285 283 285 288 286 281 283 280 279 281 283 286 289 291 292 292 293 294 294 294 295 295 295 295 295 295 295 296 296 296 295 296 297 296 296 296 297 297 297 297 297 297 298 296 297 297 297 296 295 295 295 296
288 291 290 283 282 286 284 287 294 292 291 293 294 296 297 297 295 294 296 299 299 299 297 296 293 293 292 294 296 290 290 291 287 287 289 286 287 285 282 281 281 284 285 283 284 288 290 292 292 293 293 294 294 294 294 295 295 295 295 295 296 296 296 296 296 296 297 296 296 297 297 297 298 297 297 297 297 297 297 297 297 297 297 297 296 296 296
292 289 286 287 288 289 289 292 291 289 291 292 293 295 295 294 294 296 298 300 298 297 298 296 293 293 289 291 290 288 286 290 285 284 287 286 283 279 280 279 280 280 285 288 289 290 292 294 294 294 294 294 294 295 295 296 295 295 295 295 296 296 297 297 297 297 297 297 297 297 297 297 298 297 297 297 296 296 298 297 297 297 298 297 296 296 296
289 288 288 287 287 289 292 293 290 288 291 292 293 293 295 295 295 297 299 298 300 298 298 295 296 292 290 289 286 288 287 289 288 287 285 282 283 284 283 281 283 283 286 290 290 291 295 296 295 294 294 294 295 295 295 296 294 296 297 297 297 297 297 297 297 298 298 297 297 298 298 298 297 297 297 297 297 298 298 297 297 297 297 297 297 297 296
292 290 290 294 289 288 290 286 286 287 288 290 292 293 294 294 295 295 300 300 298 295 293 290 291 289 288 287 286 282 285 290 287 285 285 284 287 285 283 283 286 289 291 294 296 296 296 296 295 295 295 295 295 295 296 296 297 297 298 297 297 298 298 298 298 299 299 298 299 294 297 297 297 298 298 299 298 297 297 297 296 297 297 297 297 297 297
289 287 288 290 293 293 293 293 293 292 292 294 294 296 296 295 297 298 300 299 296 292 290 292 290 288 285 284 286 289 289 288 285 286 284 287 288 285 285 287 290 292 294 294 294 296 296 297 297 295 295 294 294 296 296 297 297 297 297 298 298 297 297 297 298 298 299 299 299 298 298 298 298 298 298 298 297 296 295 295 296 297 297 297 298 298 298
Wind_Speed
15 15 12 9 7 7 6 3 1 1 3 5 2 3 4 4 2 4 8 10 11 7 7 7 6 9 7 4 5 6 6 7 2 4 3 6 2 4 4 5 6 11 10 9 9 11 5 7 9 7 10 6 6 3 4 1 12 13 10 10 4 1 5 10 11 10 8 5 5 3 2 7 9 10 9 12 13 12 11 9 9 8 7 7 5 4 4
15 12 8 9 7 7 4 2 1 1 2 4 3 4 4 4 2 3 5 7 4 6 7 8 8 8 6 5 7 5 7 4 4 5 6 4 1 3 4 6 10 9 7 7 10 12 5 2 4 5 3 4 4 2 4 7 9 13 8 10 9 5 5 9 10 9 8 6 5 8 7 8 10 12 9 8 8 7 3 3 9 9 11 11 7 7 5
15 10 8 8 9 6 3 2 1 1 3 4 2 3 3 4 3 1 5 6 4 6 3 4 4 8 8 6 8 9 6 4 7 8 9 5 6 5 7 11 7 7 7 9 7 10 6 5 3 4 4 3 3 3 5 9 8 5 2 1 8 5 3 8 12 13 14 14 14 15 12 12 6 2 6 6 10 12 10 10 8 9 8 9 8 2 8
12 10 8 7 7 3 2 2 1 2 0 3 3 3 4 3 2 4 6 5 4 7 6 5 5 5 7 5 7 6 6 4 8 10 10 8 9 10 11 12 10 11 9 9 11 10 8 7 5 5 4 3 3 3 6 7 6 5 4 6 6 2 3 3 2 9 9 5 3 6 3 11 10 6 9 7 4 2 9 8 8 9 8 9 7 9 12
10 8 7 5 3 4 3 2 2 3 3 4 4 3 3 3 2 3 6 5 7 6 6 7 6 4 4 4 4 8 8 5 6 8 5 6 9 8 8 3 5 8 11 8 7 5 11 7 9 7 7 3 3 3 4 6 6 10 7 4 5 4 3 3 5 10 5 3 3 3 4 7 6 11 7 5 5 4 8 6 7 5 8 9 5 13 14
8 5 8 6 3 2 2 2 3 3 6 4 3 4 3 3 1 4 1 3 4 8 7 8 6 7 5 5 1 4 6 8 5 5 10 8 6 6 4 5 10 10 6 11 5 9 10 10 4 8 7 7 5 7 4 4 1 4 6 4 5 9 4 3 4 7 5 4 3 2 6 7 5 6 8 7 4 6 10 6 2 8 7 5 9 10 8
4 10 6 3 1 1 1 2 3 4 6 4 3 3 3 4 4 4 2 4 1 6 1 8 9 7 7 5 5 4 7 10 7 2 4 4 6 10 3 10 10 9 3 4 7 12 9 3 7 8 9 9 7 4 6 5 4 5 8 4 2 3 2 6 5 8 6 5 4 3 7 9 9 8 7 6 5 3 4 6 3 3 4 5 13 10 11
12 9 6 4 1 0 1 3 2 5 4 4 4 4 3 1 3 1 4 7 5 3 5 5 7 8 7 4 5 5 8 9 2 2 4 3 2 7 6 7 9 8 0 6 10 5 5 13 9 9 13 8 4 6 1 6 3 3 4 3 1 3 2 8 9 7 6 4 4 5 7 7 11 9 7 7 7 8 7 7 6 5 6 10 16 15 9
8 7 4 2 2 2 3 4 3 5 4 3 4 3 4 3 3 4 5 5 6 6 6 6 6 5 6 7 4 4 3 3 3 3 3 7 6 1 8 7 9 5 8 10 9 5 5 9 10 8 6 7 3 2 4 2 7 5 4 2 3 2 3 5 5 5 3 3 5 6 7 9 12 10 8 6 5 6 4 4 4 2 8 12 12 10 7
7 6 4 4 4 4 3 3 3 5 4 3 2 4 2 3 2 3 3 3 3 6 5 6 5 5 6 6 3 4 7 9 3 3 2 2 2 4 3 5 9 11 13 9 8 8 13 13 11 10 10 10 7 6 7 4 10 6 2 1 5 6 8 4 6 5 5 5 3 8 9 8 6 4 5 5 5 7 7 6 6 8 4 9 6 5 9
7 6 5 5 4 3 3 2 2 5 4 4 2 3 3 3 3 4 3 3 3 7 5 6 7 0 1 8 5 1 2 8 5 4 2 1 3 4 5 3 8 9 10 8 2 10 16 11 10 12 13 14 9 9 8 9 7 3 6 4 3 8 12 6 6 3 6 7 5 5 6 8 4 5 2 5 5 2 4 5 7 10 9 7 7 10 13
7 6 4 4 2 3 3 3 2 3 5 4 3 4 2 2 3 2 2 3 2 3 6 5 6 2 2 0 3 3 7 8 8 5 7 3 2 4 4 4 9 7 7 7 7 10 15 12 11 12 15 13 13 14 13 11 5 2 1 4 7 9 8 5 4 3 5 5 3 6 8 5 3 4 1 1 2 5 9 8 8 7 8 10 12 12 12
7 5 5 5 5 6 4 4 3 2 5 5 4 5 1 2 2 3 3 3 2 3 5 4 2 5 4 4 4 2 2 7 9 6 2 1 4 5 4 3 8 13 9 5 3 5 9 11 10 11 11 11 11 15 15 14 11 7 5 3 7 6 6 5 2 4 6 5 6 7 5 4 2 2 3 3 5 7 9 8 6 6 7 9 12 11 12
6 5 6 6 6 6 6 4 5 4 5 5 4 4 2 2 2 3 2 2 3 2 4 5 4 3 4 6 3 4 1 5 5 4 1 4 6 6 5 4 9 10 4 2 3 4 6 5 5 6 6 6 6 6 7 11 13 10 8 5 0 8 6 5 4 1 5 5 5 2 3 5 3 3 5 6 5 7 3 1 5 6 5 7 11 11 12
7 6 6 7 7 7 6 7 6 6 5 6 5 3 3 3 3 3 3 3 3 4 4 3 1 3 2 3 3 4 2 7 4 3 3 2 6 5 5 6 5 5 0 5 3 1 3 2 4 3 3 4 4 3 2 3 5 9 6 4 3 2 4 2 4 1 2 7 5 4 4 5 5 3 7 4 2 2 1 2 6 5 6 8 12 14 13
7 6 6 7 8 8 8 8 8 8 7 7 5 5 5 4 3 3 3 3 4 2 2 3 6 6 3 3 7 9 6 4 5 7 7 7 8 7 7 4 3 1 5 2 2 1 1 2 3 4 3 3 4 2 2 3 4 5 4 4 3 4 3 1 3 4 3 5 7 6 6 2 3 8 7 6 3 2 2 3 3 6 7 8 11 13 13
7 7 6 8 8 9 10 9 9 8 8 7 5 3 2 5 4 4 4 4 3 3 4 3 6 5 5 4 4 7 8 5 7 5 6 5 6 6 6 4 2 4 4 2 1 1 2 2 3 2 3 2 4 2 4 2 5 3 4 5 5 3 2 3 3 4 5 4 6 5 2 3 5 8 7 6 4 1 4 5 5 6 8 8 10 13 14
8 6 6 7 8 9 10 10 10 10 9 8 5 4 2 3 5 5 4 4 3 3 3 5 5 3 1 2 7 3 2 2 2 2 3 6 7 6 6 5 4 1 4 1 1 1 1 2 2 3 2 2 2 2 3 5 6 4 4 2 3 3 2 2 5 6 3 5 3 3 4 3 5 8 6 6 3 3 6 6 5 8 9 8 9 11 12
9 8 7 7 8 9 10 10 10 10 10 8 6 4 4 5 6 6 5 4 3 2 3 7 3 6 6 4 3 1 2 3 1 4 4 4 3 4 2 3 4 1 3 0 3 2 3 1 2 1 3 3 3 1 2 4 2 2 2 5 3 1 2 1 1 5 6 5 6 2 5 3 6 5 6 3 2 4 1 4 2 9 10 9 10 11 11
9 8 7 7 8 9 9 9 10 10 10 10 7 3 3 3 5 7 6 4 2 6 8 6 6 6 6 6 2 1 2 4 1 3 7 3 4 5 4 3 3 1 3 2 2 1 2 3 2 1 2 6 3 2 1 2 2 2 1 2 2 2 3 6 5 2 2 2 3 3 5 2 5 9 6 0 3 4 3 7 8 9 10 12 11 10 11
8 8 8 9 9 9 9 10 10 9 9 10 9 4 3 2 1 5 5 5 3 5 1 4 5 6 7 7 6 6 7 4 2 2 2 4 3 2 5 1 5 4 3 2 2 3 1 3 4 1 2 1 5 3 2 4 4 2 3 1 1 4 4 4 2 1 3 6 5 1 5 8 6 5 2 6 7 5 6 8 10 10 10 10 10 10 10
9 9 9 10 10 10 9 9 9 9 10 11 12 6 5 1 1 1 4 4 4 5 3 9 6 9 8 5 4 5 6 7 6 7 1 3 1 2 3 1 2 1 2 0 3 2 2 2 2 2 4 3 2 1 4 5 5 4 2 2 4 7 5 6 1 3 3 2 4 4 4 6 5 6 7 7 5 5 6 8 10 11 9 10 10 11 12
10 10 10 10 10 10 10 9 8 7 9 10 8 4 5 4 3 1 2 3 4 7 8 8 6 7 7 4 2 4 4 3 6 5 6 1 3 2 1 1 4 3 1 3 3 1 4 5 2 2 4 3 4 3 3 3 2 5 4 4 4 2 4 0 4 5 8 9 7 5 5 6 7 7 6 6 6 7 8 10 9 9 11 10 12 13 14
10 10 10 10 11 11 10 9 8 5 8 9 8 5 5 4 4 1 3 3 2 3 3 4 2 3 7 8 9 6 7 9 7 5 3 3 2 2 1 1 2 3 1 2 3 1 2 0 2 2 3 3 2 4 6 5 1 5 5 4 3 3 1 1 4 8 5 3 3 6 6 5 6 7 6 6 6 8 8 9 10 11 12 12 14 14 15
11 11 11 11 12 12 11 10 8 8 9 10 8 6 6 6 5 5 4 1 1 3 3 4 7 5 4 4 6 6 9 8 6 5 2 1 5 5 1 6 3 3 4 4 1 3 2 2 3 3 3 2 4 3 3 2 4 4 3 4 3 4 4 1 5 5 1 5 6 5 5 5 5 4 6 8 9 9 9 10 11 13 13 13 15 15 14
12 11 11 12 12 12 12 11 9 9 11 10 9 6 6 6 4 5 6 7 5 4 1 6 7 5 5 6 10 9 9 8 8 9 10 10 9 8 10 5 6 4 5 1 1 2 2 1 1 1 3 3 3 2 3 6 5 3 4 5 5 4 6 3 6 5 6 8 7 7 7 7 6 5 5 7 8 10 12 13 15 15 16 15 14 13 14
13 13 12 13 13 13 13 12 11 11 12 11 8 7 8 8 6 8 7 2 4 2 2 7 5 7 9 13 8 6 8 7 8 9 11 11 10 8 8 8 8 6 5 5 3 2 2 2 2 3 3 4 2 5 4 5 5 4 5 3 3 6 5 7 6 5 4 6 8 12 7 6 5 6 8 9 10 12 14 14 15 15 16 15 16 15 14
14 14 14 13 14 14 14 13 12 13 13 13 10 8 7 7 7 9 9 6 5 1 5 6 7 7 6 13 9 8 7 8 9 10 10 11 10 8 7 6 5 4 4 4 4 2 3 3 5 2 3 5 4 3 2 5 6 5 5 5 0 2 6 6 2 2 2 7 12 7 4 10 9 9 10 11 12 13 15 15 16 15 15 15 16 17 16
14 14 14 15 15 16 15 15 14 14 15 13 7 5 5 6 5 7 8 7 5 6 3 5 6 3 3 5 4 8 10 10 11 11 11 12 11 10 9 8 7 6 7 6 5 5 5 6 3 3 3 4 2 6 6 4 3 4 3 2 2 3 5 2 7 11 9 11 10 6 8 9 11 11 12 11 10 12 14 15 14 15 15 14 15 15 17
15 15 15 15 15 16 17 15 15 14 13 7 5 3 2 4 5 6 7 7 6 5 2 4 5 3 1 1 7 7 9 11 13 14 13 11 10 9 8 8 8 7 6 4 4 7 5 5 3 5 4 5 2 3 3 3 4 3 3 3 2 5 4 3 1 2 8 9 8 10 14 14 12 12 12 12 12 13 14 15 15 15 15 15 16 14 12
16 15 15 16 16 17 17 16 15 14 11 5 4 2 2 2 4 4 7 5 5 5 1 4 6 3 4 3 3 7 7 8 9 9 10 9 9 8 7 7 8 6 6 6 6 6 2 4 3 3 3 8 4 3 4 4 4 3 3 3 3 5 5 4 5 9 12 12 14 15 15 14 13 14 13 13 13 13 13 13 14 15 16 16 15 14 13
17 16 16 16 17 17 16 15 14 11 6 4 4 3 4 4 4 3 6 5 3 4 4 6 4 2 3 2 4 3 4 3 1 5 6 4 8 7 9 8 7 7 6 6 4 4 5 4 4 5 5 4 3 4 3 5 5 4 4 5 6 7 7 9 10 12 14 16 19 16 14 13 10 11 11 13 14 14 15 15 14 13 12 13 13 14 14
18 17 17 17 18 19 17 14 13 8 6 8 12 14 15 14 7 5 5 4 5 1 2 1 3 2 1 5 1 4 5 2 4 4 7 5 5 4 6 5 5 6 6 1 3 2 2 3 3 6 6 2 3 4 6 6 5 6 6 6 8 9 10 11 12 12 12 11 7 11 13 11 13 16 16 15 13 11 12 14 13 13 14 15 15 13 12
19 18 19 18 18 19 17 13 14 11 9 5 3 3 4 1 4 9 6 5 1 1 0 2 2 2 4 2 2 5 6 2 5 3 5 5 3 3 4 5 6 4 6 6 4 4 2 3 5 5 5 5 4 5 5 4 7 8 9 9 10 11 11 12 11 11 9 9 11 14 16 17 14 13 14 14 14 10 11 13 14 15 13 13 12 10 10
20 20 19 18 17 16 17 11 4 3 2 3 1 3 4 1 3 8 10 3 3 2 2 1 1 5 3 1 2 5 5 2 4 5 4 4 4 5 5 5 3 4 3 2 3 3 3 3 2 3 6 5 4 5 4 6 9 9 9 10 11 12 12 11 10 11 12 14 15 16 16 18 18 15 13 12 11 11 14 13 13 13 13 12 12 11 10
21 20 18 16 15 11 5 2 2 3 3 0 2 3 5 7 5 6 6 3 4 2 3 2 2 3 2 4 3 2 3 6 3 3 5 1 5 4 3 3 7 5 2 3 5 5 4 2 3 5 1 4 4 3 5 8 9 9 9 9 9 9 10 12 14 14 15 16 17 17 17 15 16 16 11 11 11 11 13 13 13 13 14 14 13 13 12
21 19 17 14 6 3 2 1 1 1 3 4 9 13 13 4 3 3 3 5 1 4 2 3 2 3 3 4 2 2 3 3 1 2 2 2 3 1 2 3 6 1 2 5 5 6 6 5 5 8 5 6 6 6 7 7 9 9 9 9 9 11 14 15 17 18 18 18 18 15 15 16 13 11 10 11 11 12 14 14 14 14 15 14 13 12 11
20 14 5 2 4 2 1 1 1 4 9 10 7 4 4 5 3 3 2 1 2 2 2 2 3 3 1 2 3 2 3 3 3 1 2 0 0 3 1 3 2 0 5 4 5 2 3 5 6 6 6 7 6 6 6 7 8 8 9 10 11 12 14 16 18 20 21 19 18 18 16 16 14 11 12 13 14 15 14 12 12 11 11 10 10 10 10
11 3 3 1 1 1 0 1 4 9 6 5 4 2 2 2 1 1 1 0 1 2 1 1 4 2 3 3 5 2 3 0 2 1 1 2 1 3 1 2 1 0 3 3 4 3 5 7 6 7 7 5 6 5 6 7 8 9 10 11 12 13 14 14 14 15 14 14 18 18 17 16 17 16 13 14 13 11 11 12 11 11 10 11 11 10 10
2 1 1 1 1 2 4 5 7 5 3 1 0 1 2 1 1 2 0 1 2 2 1 2 2 0 3 1 5 4 1 4 0 4 3 3 2 1 2 2 1 1 4 3 3 3 3 6 5 6 7 4 6 6 7 9 10 11 11 12 14 15 16 16 14 11 14 17 17 17 16 16 15 13 12 12 13 13 12 12 11 11 11 10 10 10 11
6 4 2 1 4 5 5 8 5 3 2 2 2 1 0 2 1 1 1 1 0 2 2 2 4 3 2 2 2 3 2 2 2 2 2 3 1 2 2 2 0 1 3 4 1 1 3 4 4 6 7 7 8 8 10 10 11 12 12 14 15 15 16 15 15 17 18 17 16 15 15 15 15 14 13 14 12 12 12 12 11 11 12 11 10 11 10
6 6 6 7 8 7 6 3 1 1 1 1 1 1 1 1 1 1 1 2 3 2 4 3 4 5 5 1 3 3 3 2 1 1 0 2 1 1 3 1 0 1 2 2 1 1 2 4 5 7 7 9 10 10 10 11 12 13 14 14 15 15 15 16 17 15 15 16 15 16 15 15 14 13 12 12 11 11 11 11 12 12 11 10 11 10 10
9 7 5 4 3 2 2 2 1 1 1 2 1 2 1 2 1 2 3 1 0 1 3 2 3 3 3 2 3 4 2 0 1 0 1 2 1 1 0 1 0 3 3 3 1 2 2 4 5 7 9 10 11 11 11 11 12 13 14 14 14 14 15 16 16 15 14 14 15 13 13 14 12 11 11 11 12 12 11 11 10 10 10 10 10 10 10
3 3 3 2 2 0 1 2 1 0 0 0 2 4 3 3 3 2 2 3 4 2 5 7 6 6 4 1 1 3 2 2 0 1 2 0 1 1 0 2 3 3 2 2 1 3 3 2 4 9 10 10 9 10 11 12 12 12 12 13 14 15 15 15 15 15 14 12 12 11 11 11 11 10 10 10 11 11 10 10 10 10 10 11 10 10 9
3 2 2 1 1 0 1 0 0 1 4 4 3 4 4 6 5 5 2 3 4 5 7 4 8 5 4 3 0 1 2 2 1 1 2 0 1 2 1 2 2 2 1 2 2 3 2 4 7 11 13 12 11 12 12 12 12 12 12 13 14 15 15 15 14 13 13 12 12 11 11 11 11 10 9 10 10 9 10 10 10 10 10 10 10 10 9
2 2 3 3 1 2 2 1 2 3 1 1 4 4 6 5 5 5 4 3 3 6 8 7 6 5 4 1 1 2 1 1 2 2 0 1 1 2 2 1 1 1 0 1 2 4 4 7 10 12 14 14 13 14 14 13 13 12 13 13 14 15 16 15 14 13 12 12 12 11 11 10 10 10 9 8 8 10 10 10 10 10 10 10 10 10 9
2 1 1 1 3 2 0 2 4 2 2 5 3 5 6 4 3 4 3 2 4 5 6 5 4 4 5 3 2 2 1 0 1 1 2 0 2 2 0 1 1 1 2 2 2 2 3 9 12 14 16 16 15 15 15 15 14 15 14 13 13 15 15 15 15 14 13 13 12 11 11 10 10 9 9 8 8 8 10 12 11 11 10 11 11 10 9
2 0 1 3 4 3 6 4 1 2 1 0 1 0 2 2 5 5 4 2 3 6 7 7 6 5 3 1 3 2 2 1 2 1 1 2 2 1 1 1 1 1 1 1 1 2 4 11 13 15 16 17 16 16 16 15 16 17 16 15 15 14 14 15 14 13 13 13 12 11 10 10 9 9 10 10 9 8 10 11 11 11 10 10 10 10 9
2 2 2 2 2 3 5 5 4 6 4 3 2 3 4 6 6 4 5 3 5 7 7 7 5 4 2 0 1 3 2 1 1 2 1 2 1 2 2 1 1 2 2 2 1 2 6 11 14 17 18 18 17 15 15 15 16 16 16 16 15 14 13 13 12 12 12 11 11 10 10 10 9 10 10 10 10 10 10 10 11 9 9 10 10 10 9
3 2 1 1 2 2 1 3 6 5 6 4 5 6 6 7 6 4 4 5 5 6 4 3 0 0 2 2 2 1 1 1 1 2 2 2 1 1 1 1 2 1 2 2 1 3 7 12 15 17 18 18 18 17 17 16 15 14 14 15 14 13 13 13 12 12 11 11 11 11 10 9 9 9 10 11 11 10 10 10 11 10 9 9 10 9 9
2 2 2 3 4 4 7 8 9 6 6 9 8 8 8 8 7 6 4 4 7 6 5 5 4 2 3 1 2 3 1 1 2 3 1 1 2 2 2 2 1 1 2 4 3 6 9 13 15 15 17 18 18 18 16 16 15 14 14 14 13 13 12 13 12 11 11 11 11 11 11 11 10 10 10 10 11 12 11 10 10 11 10 9 9 9 9
2 3 5 5 3 2 8 8 8 7 7 7 8 7 7 8 5 5 5 6 7 8 6 3 3 3 2 3 2 2 2 1 0 0 2 2 1 2 2 2 1 2 3 4 5 5 9 12 15 15 17 17 18 18 17 16 15 14 14 13 13 13 13 13 12 11 10 9 10 11 11 11 11 9 9 11 13 13 12 11 10 9 9 9 8 8 8
Wind_Direction
295 292 269 236 228 220 232 263 226 318 249 283 330 320 250 222 291 81 155 161 188 215 221 190 202 220 228 261 264 260 261 265 275 258 233 265 228 258 231 234 253 247 246 241 238 206 155 193 193 175 188 148 63 70 152 151 182 195 187 192 138 184 210 176 179 167 108 113 129 55 271 194 201 214 220 191 201 201 206 209 166 185 153 196 184 205 108
287 286 247 228 223 212 225 247 132 250 229 302 302 268 262 281 295 119 143 181 244 246 200 192 210 215 217 238 251 221 260 265 264 252 250 253 295 265 271 275 235 264 246 236 231 189 163 113 158 161 141 128 54 58 187 187 192 200 171 205 141 206 189 195 171 175 183 146 160 180 177 207 214 204 195 229 207 212 236 247 180 210 178 205 188 195 154
297 289 244 231 210 192 237 165 208 284 256 277 301 278 298 291 255 99 148 200 262 222 275 258 211 210 217 225 227 229 222 240 251 259 262 253 256 261 260 251 272 264 254 236 245 193 198 126 41 82 91 82 58 84 184 194 203 180 129 268 145 228 162 205 187 183 184 187 190 187 182 196 171 164 174 194 209 195 192 210 192 219 170 219 221 119 103
291 271 228 210 198 168 164 152 222 269 279 210 241 261 279 247 199 136 150 205 225 264 274 280 284 226 213 224 243 240 237 229 241 237 259 263 247 245 266 274 280 269 230 201 188 173 161 171 137 167 131 113 101 57 166 185 202 130 120 163 163 125 56 8 313 214 203 182 85 19 300 166 189 168 182 168 196 194 226 215 197 210 171 199 207 139 147
276 233 199 162 197 144 179 177 233 243 198 208 274 272 258 321 260 165 170 175 224 243 220 230 243 236 222 227 205 213 222 237 239 192 245 216 239 252 242 288 273 229 195 170 143 151 151 163 141 164 141 43 71 92 143 151 120 117 112 137 149 160 146 55 64 56 52 42 32 345 319 171 154 155 148 148 180 209 211 201 208 161 168 199 118 141 152
284 180 147 167 165 183 199 209 247 228 191 219 267 261 214 236 220 262 71 235 185 204 225 223 233 251 229 227 272 230 190 212 226 160 230 251 210 240 156 277 258 269 223 165 153 144 127 139 123 105 94 116 123 117 139 149 89 208 146 197 215 190 172 113 96 72 76 57 65 61 87 105 110 120 140 151 161 193 203 182 112 177 217 200 151 167 149
167 134 121 111 131 248 231 253 256 170 179 223 260 276 235 262 310 273 304 243 25 220 131 194 217 235 230 245 234 240 203 215 210 258 294 241 223 208 183 204 242 243 213 181 145 145 130 119 134 130 137 158 155 119 127 104 135 178 148 149 10 148 100 144 127 108 74 65 80 137 123 119 106 94 95 108 129 103 145 117 85 46 66 130 142 110 88
127 114 119 119 164 217 305 280 210 146 169 226 240 241 280 280 341 357 315 271 281 280 227 218 212 224 209 241 212 228 214 217 255 238 245 269 267 160 176 172 198 237 266 173 159 138 161 152 153 154 154 150 213 137 354 132 134 183 137 140 43 263 123 162 146 113 78 73 109 107 120 126 104 87 94 101 98 95 86 99 77 99 108 128 120 116 108
73 83 71 82 9 313 287 265 159 144 233 228 229 251 232 309 315 315 311 255 234 244 232 219 218 218 198 227 226 226 205 252 264 260 258 272 293 36 128 129 113 84 92 71 58 25 123 140 125 122 153 145 122 183 175 171 141 172 142 125 127 131 112 200 210 147 120 116 114 124 121 112 96 86 74 81 113 107 63 68 10 348 141 134 130 134 141
102 94 51 28 355 323 283 260 186 170 234 272 260 248 52 300 343 4 300 273 240 246 219 225 222 227 213 219 207 211 206 223 292 303 196 306 268 330 25 87 98 82 59 33 33 57 69 80 91 94 83 82 76 67 77 127 172 180 106 214 176 139 143 190 203 175 126 140 146 132 142 131 131 89 66 69 84 88 100 82 48 9 334 145 159 88 110
63 57 40 19 3 343 330 316 287 165 217 249 270 281 359 359 335 347 317 281 223 233 233 212 218 123 226 206 227 127 337 279 293 302 47 7 55 356 345 336 98 91 112 121 105 99 96 87 96 101 93 94 94 83 78 55 43 111 145 134 142 161 154 185 194 170 131 145 156 166 186 188 152 54 91 359 74 98 113 84 41 33 20 68 52 106 122
44 36 10 30 19 5 354 349 329 232 239 275 298 281 307 320 329 282 288 267 247 223 232 214 222 201 280 288 218 168 191 235 279 331 307 26 29 11 5 83 105 102 122 145 155 114 112 119 106 105 110 106 102 96 94 87 88 54 211 177 157 170 166 154 173 150 148 135 161 178 199 171 48 212 60 144 128 84 95 95 73 76 86 97 100 113 127
21 23 30 12 5 356 359 341 307 284 252 263 245 265 330 349 310 298 283 275 282 231 223 218 17 293 276 302 183 231 237 295 298 298 248 297 106 52 27 9 105 125 154 150 176 206 148 126 122 113 112 116 99 78 62 57 53 52 49 94 160 151 154 125 103 110 120 165 182 192 173 43 166 116 137 90 120 119 121 91 84 86 98 108 112 111 108
1 10 24 17 5 359 354 347 338 330 307 294 264 250 266 277 291 294 291 303 264 271 307 296 259 257 263 255 235 133 81 304 310 288 105 6 57 52 54 49 94 135 156 232 263 131 116 152 128 143 124 130 117 81 60 64 40 34 41 41 344 168 140 159 118 271 168 183 181 80 93 150 152 146 185 187 148 178 217 112 137 136 130 121 126 124 118
5 0 21 8 7 359 3 351 344 336 330 316 292 289 263 255 226 237 303 291 295 296 242 231 62 356 313 249 188 96 6 287 244 110 78 97 68 32 48 86 115 127 150 278 143 148 113 127 144 144 144 181 172 115 132 72 57 37 29 30 39 18 216 148 160 186 256 179 138 146 181 207 170 148 119 158 73 349 124 129 123 155 149 141 139 135 133
351 358 3 1 3 359 1 354 346 338 329 318 291 260 246 237 231 247 280 286 304 277 83 358 315 300 296 181 172 157 191 236 182 149 135 95 94 102 76 95 100 329 299 15 41 60 116 180 149 176 168 131 73 133 138 136 125 73 51 71 97 75 62 132 235 151 196 185 187 192 199 91 75 140 147 136 166 168 155 250 142 146 156 156 145 141 143
347 350 358 353 360 358 358 347 340 339 332 320 302 300 274 176 212 232 250 255 249 287 354 305 262 257 264 131 155 201 212 201 174 157 138 125 100 103 118 117 175 280 330 331 105 186 160 157 211 123 84 6 178 116 99 175 132 110 108 121 101 132 167 166 166 168 194 198 209 204 45 95 137 135 145 153 119 110 236 225 179 156 159 157 150 149 149
345 353 353 352 354 356 348 345 340 340 331 330 299 288 249 179 226 234 249 262 287 291 235 220 250 246 226 90 194 158 313 219 198 100 118 123 146 139 135 171 172 120 295 284 212 169 103 186 187 205 126 40 20 270 184 158 146 137 145 132 148 148 153 216 192 196 164 214 191 86 109 87 122 143 142 142 193 247 204 222 86 148 144 153 145 145 146
355 352 350 354 353 352 345 340 335 329 331 335 322 264 226 226 218 220 261 269 266 281 345 355 289 272 308 285 333 48 310 318 247 155 125 158 115 51 74 45 326 136 215 213 216 202 188 119 338 275 168 145 226 182 98 189 136 45 154 151 122 119 134 100 198 184 185 188 196 162 78 61 129 118 154 138 208 193 158 71 164 134 139 133 136 136 138
351 348 351 354 350 346 341 335 335 334 340 351 340 309 300 220 218 227 234 261 305 282 292 322 349 336 350 345 13 126 164 193 249 199 181 163 127 183 162 167 180 246 156 209 165 10 240 174 156 196 213 159 148 29 127 64 335 113 159 327 264 140 189 181 171 79 52 185 173 166 200 123 197 145 158 3 282 61 110 123 122 133 130 133 129 129 130
354 352 352 354 348 345 340 339 339 341 351 345 349 326 322 96 248 221 243 275 288 298 99 62 346 331 357 4 354 346 355 21 8 257 88 72 95 219 192 198 146 187 166 197 193 158 252 154 164 160 14 346 123 225 174 118 141 105 341 8 41 27 258 173 122 322 198 176 189 137 53 124 140 182 145 102 55 102 132 127 123 124 128 125 124 125 122
351 352 353 351 345 343 340 340 344 356 350 340 333 314 292 41 3 300 226 238 249 247 302 322 300 272 293 335 2 357 358 346 350 332 314 125 177 317 359 56 68 220 70 139 121 113 188 93 99 171 173 132 184 206 138 176 180 109 124 279 189 35 12 357 71 53 343 28 62 108 139 117 89 64 91 95 101 107 125 119 130 133 129 132 122 121 120
349 352 351 349 344 339 339 339 358 3 322 327 323 303 306 320 293 256 193 214 259 261 268 272 267 252 239 237 5 15 6 350 337 328 331 256 162 222 264 209 137 37 84 315 290 10 132 171 178 155 147 163 175 151 192 278 124 142 157 32 34 45 17 8 85 86 102 78 69 96 118 122 92 62 75 110 113 112 124 127 125 126 129 131 126 126 125
342 347 347 345 339 335 335 336 344 331 309 302 312 301 294 283 287 254 220 243 269 300 210 227 239 44 19 21 356 18 22 18 9 336 325 314 249 156 163 70 86 158 108 46 343 301 123 56 84 233 179 109 188 190 187 183 105 125 115 138 124 62 297 221 93 141 184 107 110 93 110 115 96 82 82 89 114 119 123 120 123 125 124 116 123 127 128
341 344 343 340 335 331 330 331 332 315 304 305 305 275 273 271 253 232 231 257 224 260 95 66 47 2 2 355 7 25 16 353 357 24 41 271 310 289 92 78 29 337 117 97 201 149 157 160 156 200 165 107 280 191 30 240 144 205 160 103 160 147 229 129 119 133 329 103 127 118 115 118 103 102 116 115 118 119 120 123 123 122 120 120 124 127 124
341 341 339 337 334 327 324 325 324 310 303 301 297 281 266 271 268 230 250 262 286 274 74 79 72 44 51 49 35 14 345 360 37 48 52 51 49 79 112 120 98 69 92 113 225 199 152 152 153 183 163 133 287 270 99 9 92 151 259 117 6 85 187 169 164 119 96 101 120 127 120 89 91 106 106 116 124 122 123 125 123 122 121 121 121 121 127
338 338 334 336 331 323 320 322 320 313 307 303 294 275 262 260 241 218 214 227 261 191 105 94 91 71 56 55 36 18 16 35 51 57 60 62 77 89 101 113 117 126 122 103 59 96 92 87 114 86 52 92 81 74 109 137 120 115 95 89 181 177 167 121 138 136 168 177 167 158 141 153 127 115 120 122 124 125 122 123 122 125 124 124 122 121 123
334 333 334 334 328 320 318 322 320 314 306 302 290 267 254 246 229 221 232 245 288 19 119 122 103 96 81 54 30 38 37 63 65 69 70 71 69 72 86 93 102 114 121 142 136 147 133 126 83 80 87 118 136 78 95 96 109 86 101 110 280 193 137 169 193 224 196 133 152 177 68 115 121 124 121 123 129 130 127 126 124 124 124 126 126 126 126
332 331 333 331 324 320 320 320 316 310 308 305 284 266 227 226 220 214 221 234 241 279 94 97 93 75 75 36 14 65 66 69 67 66 69 68 69 70 70 66 70 83 82 71 80 85 83 72 51 78 77 352 301 148 169 160 144 114 79 113 140 21 314 348 41 62 74 123 142 143 134 123 125 123 120 122 126 124 121 121 122 124 125 127 127 129 129
330 330 331 328 322 316 315 315 313 310 317 310 312 266 237 143 194 198 203 211 216 282 176 124 100 84 170 50 70 69 69 68 67 63 63 63 62 63 65 69 71 64 66 70 85 88 81 88 84 80 63 309 233 153 169 138 116 84 114 150 63 139 147 92 44 127 134 131 129 114 111 113 116 116 114 117 121 121 121 123 125 125 126 126 124 120 119
328 328 326 322 316 311 308 309 306 309 311 299 297 261 215 131 131 175 181 202 219 269 60 93 100 130 95 49 4 45 54 64 64 65 60 59 58 59 68 75 58 67 89 78 70 64 71 89 90 99 102 10 331 143 143 144 125 108 73 78 96 115 103 96 105 118 124 118 110 110 107 110 113 108 107 115 117 117 115 116 121 122 123 123 116 117 118
326 325 322 318 310 303 300 301 299 296 281 263 262 331 14 22 32 122 166 221 196 230 131 114 128 130 98 119 71 4 34 49 76 88 61 33 72 60 63 54 65 47 49 70 72 82 55 62 71 77 82 360 337 92 106 113 109 104 103 112 91 95 97 108 112 119 123 122 116 105 108 115 122 123 125 122 115 116 117 116 115 109 102 105 107 112 113
323 321 317 312 306 302 298 297 288 279 267 287 302 291 277 270 247 197 200 191 214 307 337 105 90 132 152 91 155 61 346 228 85 61 63 23 69 68 75 73 88 73 15 57 51 75 71 98 101 84 65 86 96 100 86 85 93 108 107 107 103 104 107 110 114 119 126 131 124 131 134 122 114 113 113 111 104 97 105 107 109 110 112 110 109 110 111
319 316 314 309 304 300 298 297 288 277 258 249 230 153 122 151 200 199 205 214 295 107 287 97 132 126 111 207 167 66 336 21 61 41 84 38 346 61 75 82 57 74 19 51 96 113 102 97 89 103 112 85 96 95 82 90 112 115 114 112 113 115 114 111 106 102 98 96 99 107 112 113 105 97 96 98 100 104 110 116 118 116 111 110 110 114 119
318 314 311 307 301 298 300 302 299 214 251 243 137 101 101 148 278 171 186 238 217 135 107 76 122 127 137 156 95 73 345 316 78 39 78 67 357 53 67 60 40 66 52 290 79 58 84 54 301 115 85 103 80 69 84 126 125 121 120 120 122 119 111 96 95 104 104 105 105 108 112 114 110 103 105 109 111 119 122 119 121 121 119 120 125 131 137
314 312 308 302 296 291 287 204 225 271 209 293 71 55 341 329 177 183 219 264 291 93 127 116 212 138 152 124 105 101 259 89 82 89 71 111 90 26 38 73 81 56 334 26 69 54 58 337 262 100 90 84 60 76 119 131 128 128 127 129 138 136 126 121 118 113 112 111 110 111 109 105 107 110 103 105 112 119 126 127 128 127 126 131 133 133 132
312 312 303 288 267 191 275 276 319 281 358 333 301 308 295 288 127 163 198 222 168 331 118 156 152 105 359 88 95 117 257 114 249 97 64 69 71 15 26 76 70 67 78 65 58 60 55 27 79 81 57 77 93 104 116 127 129 130 132 131 123 121 122 122 122 119 115 113 112 112 112 111 106 109 114 122 129 138 139 136 135 134 133 128 130 131 128
312 301 281 227 207 179 172 259 338 353 329 294 288 255 175 207 182 161 165 100 15 281 93 270 91 109 245 211 109 64 273 107 271 113 108 5 143 78 22 58 34 126 69 67 68 11 68 67 72 79 70 68 94 108 118 127 130 131 129 127 127 127 127 129 132 129 127 124 122 123 123 122 125 135 137 139 139 134 130 128 127 125 125 123 118 122 128
290 268 220 244 232 154 173 6 2 321 298 267 237 233 104 339 168 134 52 19 204 126 40 276 122 155 161 107 92 70 340 101 143 201 127 48 315 101 294 100 96 57 112 127 84 286 94 94 102 93 89 108 103 108 123 121 124 127 126 121 125 129 132 132 134 134 133 132 135 140 141 142 143 142 140 136 131 125 130 132 132 134 128 125 128 129 125
321 264 349 208 154 31 335 324 337 318 250 218 22 265 131 334 234 130 264 175 119 73 229 140 57 68 336 122 142 126 61 292 44 95 96 107 323 33 99 80 91 75 71 72 71 319 122 111 114 114 110 118 109 129 131 131 127 131 132 130 132 134 135 134 137 139 131 133 139 142 139 136 134 133 134 132 133 134 134 132 132 131 130 123 124 127 123
5 332 295 348 8 329 319 316 303 232 263 176 133 26 170 137 32 17 215 174 98 99 338 83 153 164 145 260 186 129 113 281 35 357 56 70 16 276 102 74 336 76 76 85 112 79 90 105 116 118 120 131 134 140 134 133 131 134 134 136 141 143 142 140 139 138 138 136 134 133 132 132 133 132 132 135 136 134 132 132 132 126 125 129 127 119 121
327 303 309 299 292 286 285 239 243 172 58 329 172 74 6 69 131 192 246 215 146 145 144 194 171 153 135 12 52 100 121 330 315 265 201 100 11 10 92 128 216 115 85 75 123 113 108 98 116 119 133 140 143 145 140 136 138 138 138 138 141 143 141 138 138 139 139 135 135 135 137 137 134 136 138 137 133 132 133 133 129 133 129 118 119 127 130
293 268 251 271 255 228 254 197 63 295 185 158 105 108 177 179 187 197 154 123 24 252 113 344 57 66 83 243 114 21 47 9 280 78 37 80 165 254 84 90 124 80 100 162 199 107 108 123 131 131 145 145 149 146 142 141 140 139 139 141 141 142 139 138 140 137 136 134 135 136 138 136 135 131 132 130 132 132 133 135 133 128 129 131 128 125 127
289 253 235 228 227 120 255 187 144 118 44 273 173 166 175 166 169 184 192 160 151 161 158 170 159 191 143 332 328 136 160 167 248 79 77 98 271 79 64 66 61 81 149 190 166 116 109 125 134 140 147 148 154 154 146 147 145 142 144 147 146 145 143 142 142 142 140 139 139 139 140 137 133 133 134 133 138 136 135 134 137 134 131 131 130 128 126
280 220 226 195 176 94 176 284 242 239 200 186 207 190 174 184 169 190 159 116 193 151 163 180 167 189 126 121 251 90 289 108 159 258 104 168 97 32 41 102 121 176 194 131 133 118 135 145 136 144 151 156 157 153 150 148 148 149 144 145 147 148 148 149 148 146 144 148 146 148 143 143 143 141 139 142 142 142 143 142 142 144 142 134 130 130 133
246 218 180 165 4 289 219 153 148 200 224 163 190 185 190 195 174 178 88 158 155 143 166 166 170 148 127 123 289 110 151 177 133 49 343 257 101 78 53 91 211 177 118 199 179 195 181 160 157 155 158 159 159 154 154 153 152 149 152 152 151 152 152 151 151 151 150 150 153 153 148 151 148 148 146 140 141 148 151 148 154 149 142 138 137 138 141
263 258 276 219 203 164 231 196 187 206 167 180 196 187 201 176 144 69 94 195 178 149 135 149 160 165 157 152 157 154 165 129 85 83 261 112 87 104 280 236 189 187 188 206 213 205 156 151 159 156 158 160 161 158 159 157 157 159 160 157 159 158 157 158 158 157 157 158 161 158 156 157 154 151 148 147 146 143 147 154 156 151 149 145 143 144 148
253 246 240 198 197 161 188 202 176 106 4 246 152 128 23 70 172 175 147 197 143 150 152 149 146 137 130 57 283 103 116 116 122 93 12 97 134 153 153 211 228 205 242 252 169 148 145 150 158 157 161 161 164 163 162 162 164 166 163 164 166 166 165 164 164 162 162 164 166 164 163 162 159 157 161 157 151 148 154 160 159 159 154 147 146 151 155
302 278 228 214 201 174 203 171 175 199 167 168 187 191 172 184 197 132 131 160 169 164 162 179 163 175 133 122 182 155 150 165 188 126 178 204 197 163 190 186 193 228 184 238 65 99 142 153 155 157 160 164 166 168 166 168 169 169 168 169 171 171 171 171 170 167 171 172 173 170 170 168 168 166 164 162 162 157 159 163 165 165 163 156 157 160 163
235 214 246 229 172 206 111 144 204 200 169 170 178 187 186 201 181 120 142 158 155 140 126 71 80 78 107 184 169 152 144 157 86 140 205 194 170 160 226 217 201 249 100 147 152 124 135 149 153 159 162 165 166 170 171 172 173 174 171 172 173 175 178 179 178 175 180 180 178 176 169 168 173 170 170 171 165 156 158 167 172 172 169 166 167 169 171
231 268 243 229 228 186 167 192 193 190 181 187 186 183 184 196 190 156 172 164 159 157 174 179 164 152 156 163 169 176 135 115 195 191 225 173 154 207 216 244 191 201 75 81 94 129 148 152 158 160 163 165 168 171 173 172 173 176 173 174 174 176 177 178 176 175 179 179 176 170 172 176 175 172 172 167 157 163 165 167 176 178 175 175 175 175 170
192 206 219 195 232 232 194 198 200 207 195 184 192 177 186 198 171 130 162 173 165 182 178 147 165 156 169 181 174 85 112 186 115 141 218 195 187 226 218 257 360 72 104 136 137 139 153 159 162 163 165 165 169 170 171 172 176 176 175 175 175 174 173 174 172 170 169 170 173 177 178 175 171 167 161 162 165 171 173 175 178 182 181 182 183 185 177